﻿DATE,Temperature,Humidity
2023-01-01T00:52:00,40,77
2023-01-01T01:52:00,40,77
2023-01-01T02:00:00,40,77
2023-01-01T02:52:00,38,79
2023-01-01T03:52:00,40,77
2023-01-01T04:52:00,41,73
2023-01-01T05:00:00,41,73
2023-01-01T05:52:00,40,79
2023-01-01T06:52:00,39,82
2023-01-01T07:52:00,36,89
2023-01-01T08:00:00,36,89
2023-01-01T08:52:00,40,79
2023-01-01T09:52:00,41,79
2023-01-01T10:52:00,43,74
2023-01-01T11:00:00,43,74
2023-01-01T11:52:00,44,71
2023-01-01T12:52:00,46,66
2023-01-01T13:52:00,48,61
2023-01-01T14:00:00,48,61
2023-01-01T14:52:00,50,57
2023-01-01T15:52:00,47,63
2023-01-01T16:52:00,47,66
2023-01-01T17:00:00,47,66
2023-01-01T17:52:00,48,63
2023-01-01T18:52:00,50,61
2023-01-01T19:52:00,50,63
2023-01-01T20:00:00,50,63
2023-01-01T20:43:00,44,93
2023-01-01T20:52:00,44,93
2023-01-01T21:52:00,43,93
2023-01-01T22:50:00,45,93
2023-01-01T22:52:00,45,90
2023-01-01T23:00:00,45,90
2023-01-01T23:08:00,42,89
2023-01-01T23:23:00,42,82
2023-01-01T23:50:00,43,81
2023-01-01T23:52:00,43,80
2023-01-02T00:52:00,42,76
2023-01-02T01:52:00,40,86
2023-01-02T02:00:00,40,86
2023-01-02T02:52:00,39,82
2023-01-02T03:52:00,37,89
2023-01-02T04:52:00,37,89
2023-01-02T05:00:00,37,89
2023-01-02T05:52:00,35,93
2023-01-02T06:52:00,35,93
2023-01-02T07:52:00,35,93
2023-01-02T08:00:00,35,93
2023-01-02T08:52:00,37,79
2023-01-02T09:52:00,38,65
2023-01-02T10:52:00,38,62
2023-01-02T11:00:00,38,62
2023-01-02T11:52:00,38,65
2023-01-02T12:52:00,39,62
2023-01-02T13:52:00,41,57
2023-01-02T14:00:00,41,57
2023-01-02T14:52:00,42,51
2023-01-02T15:52:00,43,49
2023-01-02T16:52:00,42,47
2023-01-02T17:00:00,42,47
2023-01-02T17:52:00,40,49
2023-01-02T18:52:00,39,55
2023-01-02T19:52:00,38,57
2023-01-02T20:00:00,38,57
2023-01-02T20:52:00,38,57
2023-01-02T21:52:00,37,57
2023-01-02T22:52:00,37,52
2023-01-02T23:00:00,37,52
2023-01-02T23:52:00,36,57
2023-01-03T00:52:00,36,57
2023-01-03T01:52:00,35,59
2023-01-03T02:00:00,35,59
2023-01-03T02:52:00,35,59
2023-01-03T03:52:00,35,59
2023-01-03T04:52:00,34,64
2023-01-03T05:00:00,34,64
2023-01-03T05:52:00,34,64
2023-01-03T06:52:00,35,59
2023-01-03T07:52:00,34,67
2023-01-03T08:00:00,34,67
2023-01-03T08:52:00,35,64
2023-01-03T09:52:00,36,59
2023-01-03T10:52:00,39,55
2023-01-03T11:00:00,39,55
2023-01-03T11:52:00,39,55
2023-01-03T12:52:00,39,53
2023-01-03T13:52:00,39,55
2023-01-03T14:00:00,39,55
2023-01-03T14:40:00,38,57
2023-01-03T14:52:00,38,57
2023-01-03T15:30:00,36,70
2023-01-03T15:44:00,35,76
2023-01-03T15:50:00,34,81
2023-01-03T15:52:00,34,82
2023-01-03T15:57:00,34,82
2023-01-03T16:06:00,35,78
2023-01-03T16:45:00,34,82
2023-01-03T16:52:00,34,82
2023-01-03T17:00:00,34,82
2023-01-03T17:32:00,34,82
2023-01-03T17:52:00,35,76
2023-01-03T18:52:00,33,85
2023-01-03T19:52:00,32,88
2023-01-03T20:00:00,32,88
2023-01-03T20:52:00,34,79
2023-01-03T21:52:00,34,75
2023-01-03T22:52:00,35,70
2023-01-03T23:00:00,35,70
2023-01-03T23:52:00,31,82
2023-01-04T00:52:00,33,75
2023-01-04T01:52:00,35,64
2023-01-04T02:00:00,35,64
2023-01-04T02:52:00,31,82
2023-01-04T03:52:00,30,82
2023-01-04T04:52:00,30,79
2023-01-04T05:00:00,30,79
2023-01-04T05:52:00,31,69
2023-01-04T06:52:00,32,64
2023-01-04T07:52:00,32,66
2023-01-04T08:00:00,32,66
2023-01-04T08:52:00,34,61
2023-01-04T09:52:00,37,54
2023-01-04T10:52:00,38,51
2023-01-04T11:00:00,38,51
2023-01-04T11:52:00,39,50
2023-01-04T12:52:00,41,45
2023-01-04T13:52:00,43,42
2023-01-04T14:00:00,43,42
2023-01-04T14:52:00,43,38
2023-01-04T15:52:00,41,47
2023-01-04T16:52:00,41,45
2023-01-04T17:00:00,41,45
2023-01-04T17:52:00,38,48
2023-01-04T18:52:00,37,50
2023-01-04T19:52:00,36,55
2023-01-04T20:00:00,36,55
2023-01-04T20:52:00,36,55
2023-01-04T21:52:00,34,59
2023-01-04T22:52:00,33,64
2023-01-04T23:00:00,33,64
2023-01-04T23:52:00,29,75
2023-01-05T00:52:00,27,78
2023-01-05T01:52:00,28,75
2023-01-05T02:00:00,28,75
2023-01-05T02:52:00,28,75
2023-01-05T03:52:00,27,81
2023-01-05T04:52:00,28,78
2023-01-05T05:00:00,28,78
2023-01-05T05:52:00,27,81
2023-01-05T06:52:00,28,78
2023-01-05T07:52:00,28,75
2023-01-05T08:00:00,28,75
2023-01-05T08:52:00,31,67
2023-01-05T09:52:00,35,61
2023-01-05T10:52:00,38,55
2023-01-05T11:00:00,38,55
2023-01-05T11:52:00,40,53
2023-01-05T12:52:00,43,49
2023-01-05T13:52:00,45,48
2023-01-05T14:00:00,45,48
2023-01-05T14:52:00,45,48
2023-01-05T15:52:00,44,49
2023-01-05T16:52:00,43,51
2023-01-05T17:00:00,43,51
2023-01-05T17:52:00,42,55
2023-01-05T18:52:00,40,60
2023-01-05T19:52:00,41,57
2023-01-05T20:00:00,41,57
2023-01-05T20:52:00,38,68
2023-01-05T21:52:00,39,65
2023-01-05T22:52:00,39,62
2023-01-05T23:00:00,39,62
2023-01-05T23:52:00,39,62
2023-01-06T00:52:00,38,62
2023-01-06T01:52:00,34,73
2023-01-06T02:00:00,34,73
2023-01-06T02:52:00,34,73
2023-01-06T03:52:00,32,79
2023-01-06T04:52:00,33,75
2023-01-06T05:00:00,33,75
2023-01-06T05:52:00,33,75
2023-01-06T06:52:00,33,75
2023-01-06T07:52:00,32,79
2023-01-06T08:00:00,32,79
2023-01-06T08:52:00,35,70
2023-01-06T09:52:00,37,70
2023-01-06T10:52:00,44,53
2023-01-06T11:00:00,44,53
2023-01-06T11:52:00,48,44
2023-01-06T12:52:00,51,35
2023-01-06T13:52:00,53,28
2023-01-06T14:00:00,53,28
2023-01-06T14:52:00,52,26
2023-01-06T15:52:00,52,27
2023-01-06T16:52:00,48,37
2023-01-06T17:00:00,48,37
2023-01-06T17:52:00,46,40
2023-01-06T18:52:00,45,44
2023-01-06T19:52:00,44,45
2023-01-06T20:00:00,44,45
2023-01-06T20:52:00,41,51
2023-01-06T21:52:00,39,57
2023-01-06T22:52:00,37,62
2023-01-06T23:00:00,37,62
2023-01-06T23:52:00,37,62
2023-01-07T00:52:00,37,62
2023-01-07T01:52:00,36,64
2023-01-07T02:00:00,36,64
2023-01-07T02:52:00,29,78
2023-01-07T03:52:00,30,75
2023-01-07T04:52:00,28,81
2023-01-07T05:00:00,28,81
2023-01-07T05:52:00,31,76
2023-01-07T06:52:00,27,81
2023-01-07T07:52:00,27,85
2023-01-07T08:00:00,27,85
2023-01-07T08:52:00,34,67
2023-01-07T09:52:00,37,62
2023-01-07T10:52:00,39,55
2023-01-07T11:00:00,39,55
2023-01-07T11:52:00,42,51
2023-01-07T12:52:00,46,40
2023-01-07T13:52:00,48,33
2023-01-07T14:00:00,48,33
2023-01-07T14:52:00,49,32
2023-01-07T15:52:00,49,32
2023-01-07T16:52:00,49,33
2023-01-07T17:00:00,49,33
2023-01-07T17:52:00,44,40
2023-01-07T18:52:00,37,48
2023-01-07T19:52:00,37,50
2023-01-07T20:00:00,37,50
2023-01-07T20:52:00,37,52
2023-01-07T21:52:00,35,57
2023-01-07T22:52:00,33,58
2023-01-07T23:00:00,33,58
2023-01-07T23:52:00,34,56